When you browse on this site, cookies collect data to enhance your experience and personalize the content and advertising you see.
Visit our Privacy Policy to learn more. By continuing to use the site, you agree to this use of cookies and data.
  • In Lithuania
  • List of Countries
  • For 7 days
  • Water Temperature
  • Satellite Maps
  • Weather Map
  • Weather Widgets
  • user-avatar
    Login

    Hourly Weather Hobart

    Today, 20 May, Monday

    Time Temperature Precipitation Wind Pressure Humidity
    00:00 +8°C° 0 mm 1 mps 754 mmHg 82%
    01:00 +8°C° 0 mm 1 mps 754 mmHg 81%
    02:00 +8°C° 0 mm 1 mps 753 mmHg 80%
    03:00 +8°C° 0 mm 1 mps 753 mmHg 79%
    04:00 +8°C° 0 mm 1 mps 753 mmHg 78%
    05:00 +8°C° 0 mm 1 mps 753 mmHg 77%
    06:00 +8°C° 0 mm 1 mps 752 mmHg 76%
    07:00 +8°C° 0 mm 1 mps 752 mmHg 75%
    08:00 +10°C° 0 mm 1 mps 752 mmHg 68%
    09:00 +12°C° 0 mm 1 mps 751 mmHg 61%
    10:00 +15°C° 0 mm 1 mps 751 mmHg 54%
    11:00 +16°C° 0 mm 1 mps 751 mmHg 50%
    12:00 +19°C° 0 mm 1 mps 750 mmHg 47%
    13:00 +21°C° 0 mm 1 mps 749 mmHg 43%
    14:00 +19°C° 1 mm 1 mps 749 mmHg 57%
    15:00 +15°C° 1 mm 1 mps 748 mmHg 72%
    16:00 +12°C° 1 mm 0 mps 748 mmHg 86%
    17:00 +13°C° 0.1 mm 1 mps 748 mmHg 87%
    18:00 +13°C° 0.1 mm 2 mps 747 mmHg 89%
    19:00 +12°C° 0.1 mm 2 mps 747 mmHg 91%
    20:00 +12°C° 0 mm 2 mps 747 mmHg 91%
    21:00 +12°C° 0 mm 2 mps 747 mmHg 90%
    22:00 +12°C° 0 mm 2 mps 747 mmHg 90%
    23:00 +12°C° 0 mm 2 mps 746 mmHg 90%

    Tomorrow, 21 May, Tuesday

    Time Temperature Precipitation Wind Pressure Humidity
    00:00 +10°C° 0 mm 3 mps 746 mmHg 90%
    01:00 +10°C° 0 mm 3 mps 745 mmHg 89%
    02:00 +11°C° 0 mm 3 mps 745 mmHg 87%
    03:00 +11°C° 0 mm 3 mps 745 mmHg 85%
    04:00 +12°C° 0 mm 3 mps 745 mmHg 83%
    05:00 +12°C° 0 mm 4 mps 746 mmHg 83%
    06:00 +12°C° 0 mm 4 mps 746 mmHg 83%
    07:00 +12°C° 0 mm 4 mps 746 mmHg 83%
    08:00 +12°C° 0 mm 4 mps 747 mmHg 79%
    09:00 +13°C° 0 mm 4 mps 747 mmHg 75%
    10:00 +14°C° 0 mm 4 mps 748 mmHg 72%
    11:00 +14°C° 0 mm 4 mps 748 mmHg 68%
    12:00 +15°C° 0 mm 5 mps 748 mmHg 64%
    13:00 +16°C° 0 mm 5 mps 748 mmHg 60%
    14:00 +16°C° 0 mm 5 mps 748 mmHg 61%
    15:00 +15°C° 0 mm 4 mps 748 mmHg 63%
    16:00 +15°C° 0 mm 4 mps 748 mmHg 64%
    17:00 +14°C° 0 mm 3 mps 748 mmHg 70%
    18:00 +12°C° 0 mm 3 mps 749 mmHg 75%
    19:00 +12°C° 0 mm 2 mps 749 mmHg 81%
    20:00 +11°C° 0 mm 3 mps 749 mmHg 80%
    21:00 +11°C° 0 mm 3 mps 750 mmHg 80%
    22:00 +11°C° 0 mm 3 mps 750 mmHg 79%
    23:00 +11°C° 0 mm 3 mps 750 mmHg 78%

    Day after tomorrow, 22 May, Wednesday

    Time Temperature Precipitation Wind Pressure Humidity
    00:00 +12°C° 0 mm 3 mps 750 mmHg 78%
    01:00 +12°C° 0 mm 3 mps 750 mmHg 77%
    02:00 +13°C° 0.1 mm 2 mps 750 mmHg 80%
    03:00 +13°C° 0.1 mm 2 mps 750 mmHg 82%
    04:00 +13°C° 0.1 mm 2 mps 750 mmHg 84%
    05:00 +12°C° 0 mm 2 mps 751 mmHg 84%
    06:00 +12°C° 0 mm 2 mps 751 mmHg 85%
    07:00 +12°C° 0 mm 2 mps 752 mmHg 86%
    08:00 +12°C° 0 mm 2 mps 752 mmHg 80%
    09:00 +12°C° 0 mm 3 mps 753 mmHg 74%
    10:00 +12°C° 0 mm 4 mps 753 mmHg 68%
    11:00 +13°C° 0 mm 4 mps 753 mmHg 64%
    12:00 +13°C° 0 mm 4 mps 753 mmHg 61%
    13:00 +14°C° 0 mm 4 mps 753 mmHg 58%
    14:00 +14°C° 0 mm 4 mps 753 mmHg 61%
    15:00 +13°C° 0 mm 3 mps 753 mmHg 64%
    16:00 +13°C° 0 mm 3 mps 753 mmHg 67%
    17:00 +11°C° 0 mm 3 mps 754 mmHg 73%
    18:00 +10°C° 0 mm 3 mps 754 mmHg 78%
    19:00 +9°C° 0 mm 2 mps 754 mmHg 83%
    20:00 +9°C° 0 mm 3 mps 755 mmHg 83%
    21:00 +8°C° 0 mm 3 mps 755 mmHg 84%
    22:00 +8°C° 0 mm 3 mps 755 mmHg 84%
    23:00 +8°C° 0 mm 3 mps 755 mmHg 83%

    23 May, Thursday

    Time Temperature Precipitation Wind Pressure Humidity
    00:00 +7°C° 0 mm 3 mps 755 mmHg 82%
    01:00 +7°C° 0 mm 3 mps 755 mmHg 81%
    02:00 +7°C° 0 mm 3 mps 754 mmHg 82%
    03:00 +8°C° 0 mm 3 mps 754 mmHg 83%
    04:00 +8°C° 0 mm 3 mps 753 mmHg 84%
    05:00 +8°C° 0 mm 3 mps 753 mmHg 84%
    06:00 +9°C° 0 mm 3 mps 754 mmHg 83%
    07:00 +9°C° 0 mm 3 mps 754 mmHg 83%
    08:00 +11°C° 0 mm 3 mps 754 mmHg 77%
    09:00 +13°C° 0 mm 4 mps 754 mmHg 70%
    10:00 +14°C° 0 mm 4 mps 754 mmHg 64%
    11:00 +15°C° 0 mm 5 mps 753 mmHg 60%
    12:00 +16°C° 0 mm 5 mps 753 mmHg 56%
    13:00 +16°C° 0 mm 6 mps 752 mmHg 53%
    14:00 +16°C° 0 mm 5 mps 752 mmHg 55%
    15:00 +15°C° 0 mm 4 mps 751 mmHg 58%
    16:00 +16°C° 0 mm 3 mps 751 mmHg 60%
    17:00 +13°C° 0 mm 3 mps 751 mmHg 65%
    18:00 +12°C° 0 mm 3 mps 751 mmHg 70%
    19:00 +11°C° 0 mm 3 mps 751 mmHg 75%
    20:00 +11°C° 0 mm 3 mps 751 mmHg 76%
    21:00 +11°C° 0 mm 3 mps 751 mmHg 76%
    22:00 +11°C° 0 mm 3 mps 751 mmHg 76%
    23:00 +11°C° 0 mm 3 mps 751 mmHg 75%

    24 May, Friday

    Time Temperature Precipitation Wind Pressure Humidity
    00:00 +11°C° 0 mm 4 mps 750 mmHg 73%
    01:00 +11°C° 0 mm 4 mps 750 mmHg 72%
    02:00 +11°C° 0 mm 3 mps 750 mmHg 72%
    03:00 +11°C° 0 mm 3 mps 750 mmHg 73%
    04:00 +11°C° 0 mm 3 mps 749 mmHg 73%
    05:00 +11°C° 0 mm 3 mps 749 mmHg 73%
    06:00 +11°C° 0 mm 3 mps 750 mmHg 73%
    07:00 +11°C° 0 mm 3 mps 750 mmHg 72%
    08:00 +11°C° 0.1 mm 3 mps 750 mmHg 70%
    09:00 +12°C° 0.1 mm 3 mps 750 mmHg 68%
    10:00 +12°C° 0.1 mm 3 mps 749 mmHg 66%
    11:00 +13°C° 0 mm 3 mps 749 mmHg 62%
    12:00 +15°C° 0 mm 2 mps 748 mmHg 57%
    13:00 +16°C° 0 mm 2 mps 747 mmHg 53%
    14:00 +15°C° 0.2 mm 2 mps 747 mmHg 60%
    15:00 +14°C° 0.2 mm 2 mps 746 mmHg 68%
    16:00 +13°C° 0.2 mm 2 mps 746 mmHg 75%
    17:00 +13°C° 0.1 mm 2 mps 745 mmHg 78%
    18:00 +11°C° 0.1 mm 3 mps 744 mmHg 81%
    19:00 +11°C° 0.1 mm 3 mps 743 mmHg 84%
    20:00 +12°C° 0 mm 4 mps 743 mmHg 81%
    21:00 +13°C° 0 mm 4 mps 743 mmHg 78%
    22:00 +13°C° 0 mm 4 mps 742 mmHg 75%
    23:00 +13°C° 0 mm 4 mps 742 mmHg 77%

    25 May, Saturday

    Time Temperature Precipitation Wind Pressure Humidity
    00:00 +12°C° 0 mm 3 mps 743 mmHg 79%
    01:00 +11°C° 0 mm 3 mps 743 mmHg 81%
    02:00 +11°C° 0 mm 3 mps 743 mmHg 81%
    03:00 +11°C° 0 mm 3 mps 743 mmHg 81%
    04:00 +11°C° 0 mm 3 mps 743 mmHg 81%
    05:00 +11°C° 0.1 mm 3 mps 743 mmHg 80%
    06:00 +11°C° 0.1 mm 3 mps 744 mmHg 80%
    07:00 +11°C° 0.1 mm 3 mps 744 mmHg 79%
    08:00 +11°C° 0 mm 3 mps 744 mmHg 74%
    09:00 +12°C° 0 mm 4 mps 744 mmHg 69%
    10:00 +13°C° 0 mm 4 mps 745 mmHg 64%
    11:00 +13°C° 0 mm 4 mps 744 mmHg 62%
    12:00 +13°C° 0 mm 4 mps 744 mmHg 60%
    13:00 +13°C° 0 mm 4 mps 744 mmHg 58%
    14:00 +13°C° 0 mm 4 mps 744 mmHg 59%
    15:00 +13°C° 0 mm 3 mps 743 mmHg 60%
    16:00 +14°C° 0 mm 2 mps 743 mmHg 61%
    17:00 +13°C° 0 mm 2 mps 743 mmHg 65%
    18:00 +11°C° 0 mm 3 mps 742 mmHg 70%
    19:00 +10°C° 0 mm 3 mps 742 mmHg 74%
    20:00 +10°C° 0 mm 3 mps 741 mmHg 75%
    21:00 +10°C° 0 mm 4 mps 740 mmHg 76%
    22:00 +10°C° 0 mm 4 mps 739 mmHg 76%
    23:00 +11°C° 0 mm 4 mps 738 mmHg 75%
    Show more